Regional Weather Roundup
Issued by NWS

Home | Current Version | Previous Version | Text Only | Print | Product List | Glossary On
Versions: 1 2 3 4 5 6 7 8 9 10 11 12 13 14 15 16 17 18 19 20 21 22 23 24 25 26 27 28 29 30 31 32 33 34 35 36 37 38 39 40 41 42 43 44 45 46 47 48 49 50
000
ASCA42 TJSJ 270710
RWRPR
PUERTO RICO/U.S. VIRGIN ISLANDS HOURLY WEATHER ROUNDUP
NATIONAL WEATHER SERVICE SAN JUAN PR
300 AM AST SAT MAY 27 2017

PRZ001>002-007>008-010-270800-
PUERTO RICO

CITY           SKY/WX    TMP DP  RH WIND       PRES   REMARKS
SAN JUAN LMM   PTCLDY    79  73  83 SE5       30.03F
AGUADILLA      MOCLDY    73  72  94 SE5       30.05S
CEIBA          PTCLDY    81  73  78 E7        30.05F
$$

VIZ001>002-270800-
U.S. VIRGIN ISLANDS

CITY           SKY/WX    TMP DP  RH WIND       PRES   REMARKS
CHARLOTTE AMA  CLEAR     81  75  83 E9        30.02F
CHRISTIANSTED  CLEAR     77  73  88 NE6       30.03F
$$

HOURLY WEATHER ROUNDUP FOR THE NEWS MEDIA

CITY           SKY/WX    TMP DP  RH WIND       PRES   REMARKS
ORLANDO        CLEAR     69  62  78 CALM      30.05F
NEW YORK       PTCLDY    64  54  69 NW12G21   29.82S
NEWARK         CLEAR     61  53  75 W3        29.82S
CHICAGO        MOCLDY    56  51  84 NE6       29.86S
HARTFORD       CLOUDY    52  52 100 NW3       29.76S
BOSTON         CLOUDY    54  50  86 W7        29.77R
DALLAS         MOCLDY    81  73  76 S16       29.81F
PHILADELPHIA   CLEAR     61  52  72 SW6       29.87S
LOS ANGELES    PTCLDY    60  55  83 SW9       30.02S
WASHINGTON DC  PTCLDY    57  54  89 CALM      29.93R


USA.gov is the U.S. government's official web portal to all federal, state and local government web resources and services.